sat.trackr.live / text

‹ back to catalog

IRNSS-1B

NORAD 39635 · 2014-017A

PAYLOAD ACTIVE UNKNOWN

§ Identity

Operator
Country
IND
Launch date
2014-04-04
Launch site
SRILR
Launch vehicle
Mass (kg)
RCS (m²)
6.31

Purposes: comms, nav

External: N2YO · Heavens-Above · Gunter

§ Orbital elements

Epoch: 2026-05-19T20:39:38.653920Z

Period
1,435.98 min
Inclination
28.9733°
Eccentricity
0.0024226
Mean motion
1.00280229 rev/d
Perigee alt
35,682.1 km
Apogee alt
35,886.4 km
Semi-major
42,162.4 km
B*
0.0000e+0
RAAN
240.8911°
Arg perigee
185.2284°
Mean anomaly
176.5740°
Rev number
4,451

§ Raw data

IRNSS-1B1 39635U 14017A   26139.86086405  .00000103  00000+0  00000+0 0  99992 39635  28.9733 240.8911 0024226 185.2284 176.5740  1.00280229 44519

JSON: /api/v1/satellites/39635 · /tle

For live sub-satellite position, see the globe view (requires WebGL).

§ Visibility from observer

Set your observer location to see the next 7 days of passes ≥ 10°. The values pass through the URL so the page stays shareable.

No JS? Fill the form by hand. The geolocation button needs JavaScript.